| time (UTC) | temp F | wind direction | speed MPH | gust MPH | rain 1hr in | rain 24hr in | rain mn in | humidity % | barometer mb |
| 20260902203305 | 79 | 244 | 1.0 | 5.0 | 0.00 | 0.00 | 0.00 | 34 | 1021.0 |
| 20260902202805 | 79 | 220 | 2.0 | 5.0 | 0.00 | 0.00 | 0.00 | 35 | 1013.2 |
| 20260902201805 | 79 | 189 | 4.0 | 9.0 | 0.00 | 0.00 | 0.00 | 34 | 1013.3 |
| 20260902201305 | 79 | 188 | 4.0 | 15.0 | 0.00 | 0.00 | 0.00 | 34 | 1013.3 |
| 20260902200804 | 77 | 164 | 6.0 | 10.0 | 0.00 | 0.00 | 0.00 | 32 | 1013.2 |
| 20260902200304 | 77 | 164 | 3.0 | 12.0 | 0.00 | 0.00 | 0.00 | 33 | 1013.3 |
| 20260902195804 | 75 | 173 | 4.0 | 9.0 | 0.00 | 0.00 | 0.00 | 35 | 1013.5 |
| 20260902195306 | 75 | 181 | 3.0 | 10.0 | 0.00 | 0.00 | 0.00 | 35 | 1013.8 |
| 20260902194804 | 75 | 208 | 3.0 | 6.0 | 0.00 | 0.00 | 0.00 | 35 | 1013.5 |
| 20260902194304 | 75 | 254 | 2.0 | 6.0 | 0.00 | 0.00 | 0.00 | 36 | 1013.7 |
| 20260902193805 | 75 | 39 | 1.0 | 12.0 | 0.00 | 0.00 | 0.00 | 35 | 1022.2 |
| 20260902193304 | 70 | 169 | 4.0 | 13.0 | 0.00 | 0.00 | 0.00 | 36 | 1013.4 |
| 20260902192804 | 75 | 154 | 5.0 | 12.0 | 0.00 | 0.00 | 0.00 | 35 | 1013.5 |
| 20260902191804 | 75 | 180 | 3.0 | 10.0 | 0.00 | 0.00 | 0.00 | 36 | 1013.8 |
| 20260902190804 | 75 | 196 | 3.0 | 10.0 | 0.00 | 0.00 | 0.00 | 33 | 1013.7 |
| 20260902190305 | 75 | 250 | 4.0 | 15.0 | 0.00 | 0.00 | 0.00 | 34 | 1014.0 |
| 20260902185805 | 75 | 178 | 8.0 | 16.0 | 0.00 | 0.01 | 0.00 | 33 | 1014.0 |
| 20260902185307 | 75 | 154 | 9.0 | 16.0 | 0.00 | 0.01 | 0.00 | 35 | 1023.5 |
| 20260902184305 | 75 | 153 | 6.0 | 20.0 | 0.00 | 0.01 | 0.00 | 36 | 1014.0 |
| 20260902183805 | 71 | 173 | 3.0 | 20.0 | 0.00 | 0.01 | 0.00 | 36 | 1014.2 |
| 20260902182804 | 75 | 105 | 3.0 | 9.0 | 0.00 | 0.01 | 0.00 | 36 | 1022.3 |
| 20260902181804 | 75 | 217 | 1.0 | 7.0 | 0.00 | 0.01 | 0.00 | 36 | 1022.5 |
| 20260902181304 | 75 | 93 | 2.0 | 8.0 | 0.00 | 0.01 | 0.00 | 37 | 1014.6 |
| 20260902180804 | 75 | 134 | 2.0 | 15.0 | 0.00 | 0.01 | 0.00 | 37 | 1023.5 |
| 20260902180305 | 75 | 162 | 5.0 | 13.0 | 0.00 | 0.01 | 0.00 | 36 | 1014.6 |
| 20260902175805 | 69 | 181 | 4.0 | 13.0 | 0.00 | 0.02 | 0.00 | 37 | 1014.7 |
| 20260902175307 | 68 | 137 | 2.0 | 16.0 | 0.00 | 0.02 | 0.00 | 36 | 1014.7 |
| 20260902174804 | 69 | 178 | 1.0 | 16.0 | 0.00 | 0.02 | 0.00 | 42 | 1014.9 |
| 20260902174304 | 68 | 217 | 2.0 | 13.0 | 0.00 | 0.02 | 0.00 | 39 | 1023.1 |
| 20260902173804 | 68 | 144 | 7.0 | 13.0 | 0.00 | 0.02 | 0.00 | 39 | 1014.9 |
| 20260902173305 | 68 | 152 | 3.0 | 8.0 | 0.00 | 0.02 | 0.00 | 42 | 1019.6 |
| 20260902172805 | 67 | 172 | 3.0 | 8.0 | 0.00 | 0.02 | 0.00 | 42 | 1014.9 |
| 20260902172308 | 67 | 173 | 3.0 | 6.0 | 0.00 | 0.02 | 0.00 | 43 | 1019.2 |
| 20260902171805 | 67 | 143 | 3.0 | 6.0 | 0.00 | 0.02 | 0.00 | 42 | 1014.9 |
| 20260902171304 | 66 | 171 | 0.0 | 5.0 | 0.00 | 0.02 | 0.00 | 43 | 1015.1 |
| 20260902170804 | 67 | 104 | 3.0 | 5.0 | 0.00 | 0.02 | 0.00 | 40 | 1015.1 |
| 20260902170304 | 67 | 103 | 2.0 | 2.0 | 0.00 | 0.02 | 0.00 | 46 | 1015.1 |
| 20260902165806 | 66 | 78 | 1.0 | 2.0 | 0.00 | 0.02 | 0.00 | 49 | 1015.2 |
| 20260902165308 | 64 | 119 | 1.0 | 6.0 | 0.00 | 0.02 | 0.00 | 50 | 1015.3 |
| 20260902164804 | 63 | 89 | 0.0 | 5.0 | 0.00 | 0.02 | 0.00 | 54 | 1015.3 |
| 20260902164304 | 62 | 160 | 2.0 | 5.0 | 0.00 | 0.02 | 0.00 | 57 | 1015.0 |
| 20260902163304 | 61 | 141 | 3.0 | 7.0 | 0.00 | 0.02 | 0.00 | 56 | 1015.3 |
| 20260902161806 | 61 | 177 | 3.0 | 8.0 | 0.00 | 0.02 | 0.00 | 54 | 1015.4 |
| 20260902161304 | 61 | 145 | 6.0 | 8.0 | 0.00 | 0.02 | 0.00 | 54 | 1015.3 |
| 20260902160804 | 60 | 141 | 3.0 | 10.0 | 0.00 | 0.02 | 0.00 | 55 | 1015.4 |
| 20260902160304 | 60 | 191 | 2.0 | 8.0 | 0.00 | 0.02 | 0.00 | 56 | 1015.4 |
| 20260902155804 | 59 | 223 | 3.0 | 8.0 | 0.00 | 0.02 | 0.00 | 57 | 1015.3 |
| 20260902155306 | 60 | 144 | 5.0 | 8.0 | 0.00 | 0.02 | 0.00 | 57 | 1015.5 |
| 20260902154305 | 57 | 165 | 2.0 | 6.0 | 0.00 | 0.02 | 0.00 | 57 | 1015.6 |
| 20260902153805 | 56 | 139 | 5.0 | 10.0 | 0.00 | 0.02 | 0.00 | 60 | 1015.6 |
| 20260902153305 | 56 | 169 | 2.0 | 10.0 | 0.00 | 0.02 | 0.00 | 64 | 1026.4 |
| 20260902152804 | 56 | 153 | 1.0 | 7.0 | 0.00 | 0.02 | 0.00 | 60 | 1015.7 |
| 20260902151807 | 54 | 42 | 3.0 | 6.0 | 0.00 | 0.02 | 0.00 | 64 | 1015.8 |
| 20260902151304 | 53 | 43 | 5.0 | 6.0 | 0.00 | 0.02 | 0.00 | 66 | 1015.8 |
| 20260902150805 | 52 | 47 | 3.0 | 7.0 | 0.00 | 0.02 | 0.00 | 69 | 1015.9 |
| 20260902150305 | 51 | 81 | 6.0 | 7.0 | 0.00 | 0.02 | 0.00 | 70 | 1015.9 |
| 20260902145805 | 51 | 37 | 5.0 | 7.0 | 0.00 | 0.02 | 0.00 | 74 | 1024.8 |
| 20260902145306 | 50 | 29 | 4.0 | 7.0 | 0.00 | 0.02 | 0.00 | 73 | 1016.0 |
| 20260902144804 | 50 | 52 | 4.0 | 6.0 | 0.00 | 0.02 | 0.00 | 75 | 1022.1 |
| 20260902144304 | 49 | 51 | 4.0 | 6.0 | 0.00 | 0.02 | 0.00 | 78 | 1016.0 |
| 20260902143804 | 49 | 49 | 3.0 | 9.0 | 0.00 | 0.02 | 0.00 | 78 | 1016.1 |
| 20260902143304 | 48 | 54 | 8.0 | 9.0 | 0.00 | 0.02 | 0.00 | 77 | 1016.1 |
| 20260902142804 | 49 | 46 | 6.0 | 8.0 | 0.00 | 0.02 | 0.00 | 78 | 1016.3 |
| 20260902142306 | 48 | 64 | 2.0 | 7.0 | 0.00 | 0.02 | 0.00 | 77 | 1016.2 |
| 20260902141805 | 48 | 32 | 5.0 | 9.0 | 0.00 | 0.02 | 0.00 | 77 | 1016.2 |
| 20260902141304 | 49 | 77 | 4.0 | 9.0 | 0.00 | 0.02 | 0.00 | 78 | 1016.6 |
| 20260902140804 | 48 | 34 | 6.0 | 9.0 | 0.00 | 0.02 | 0.00 | 80 | 1016.2 |
| 20260902140304 | 49 | 51 | 6.0 | 7.0 | 0.00 | 0.02 | 0.00 | 80 | 1016.3 |
| 20260902135804 | 47 | 33 | 5.0 | 6.0 | 0.00 | 0.02 | 0.00 | 81 | 1016.5 |
| 20260902134804 | 46 | 154 | 0.0 | 1.0 | 0.00 | 0.02 | 0.00 | 83 | 1016.4 |
| 20260902134304 | 46 | 154 | 0.0 | 1.0 | 0.00 | 0.02 | 0.00 | 84 | 1016.4 |
| 20260902133804 | 46 | 154 | 1.0 | 5.0 | 0.00 | 0.02 | 0.00 | 83 | 1016.5 |
| 20260902133304 | 46 | 49 | 5.0 | 5.0 | 0.00 | 0.02 | 0.00 | 84 | 1016.4 |
| 20260902132804 | 46 | 212 | 3.0 | 6.0 | 0.00 | 0.02 | 0.00 | 86 | 1016.2 |
| 20260902132307 | 45 | 25 | 6.0 | 6.0 | 0.00 | 0.02 | 0.00 | 86 | 1016.3 |
| 20260902131804 | 46 | 25 | 6.0 | 6.0 | 0.00 | 0.02 | 0.00 | 88 | 1016.1 |
| 20260902131304 | 45 | 40 | 3.0 | 8.0 | 0.00 | 0.02 | 0.00 | 85 | 1016.1 |
| 20260902130805 | 45 | 56 | 5.0 | 8.0 | 0.00 | 0.02 | 0.00 | 87 | 1021.0 |
| 20260902130304 | 44 | 122 | 1.0 | 6.0 | 0.00 | 0.02 | 0.00 | 86 | 1020.4 |
| 20260902125804 | 45 | 60 | 5.0 | 6.0 | 0.00 | 0.02 | 0.00 | 86 | 1016.3 |
| 20260902125306 | 44 | 33 | 2.0 | 2.0 | 0.00 | 0.02 | 0.00 | 87 | 1024.4 |
| 20260902124804 | 45 | 179 | 2.0 | 3.0 | 0.00 | 0.02 | 0.00 | 87 | 1016.3 |
| 20260902124304 | 45 | 57 | 3.0 | 5.0 | 0.00 | 0.02 | 0.00 | 84 | 1025.6 |
| 20260902123804 | 44 | 43 | 3.0 | 5.0 | 0.00 | 0.02 | 0.00 | 85 | 1015.9 |
| 20260902123304 | 44 | 43 | 3.0 | 5.0 | 0.00 | 0.02 | 0.00 | 85 | 1015.9 |
| 20260902122805 | 44 | 43 | 3.0 | 5.0 | 0.00 | 0.02 | 0.00 | 85 | 1016.0 |
| 20260902122305 | 44 | 43 | 3.0 | 5.0 | 0.00 | 0.02 | 0.00 | 85 | 1025.9 |
| 20260902121804 | 44 | 43 | 3.0 | 5.0 | 0.00 | 0.02 | 0.00 | 85 | 1015.9 |
| 20260902121304 | 49 | 78 | 5.0 | 5.0 | 0.00 | 0.02 | 0.00 | 86 | 1025.9 |
| 20260902120804 | 49 | 78 | 5.0 | 5.0 | 0.00 | 0.02 | 0.00 | 86 | 1015.9 |
| 20260902120305 | 49 | 78 | 5.0 | 5.0 | 0.00 | 0.02 | 0.00 | 86 | 1020.2 |
| 20260902115804 | 48 | 78 | 5.0 | 5.0 | 0.00 | 0.02 | 0.00 | 89 | 1015.9 |
| 20260902115308 | 48 | 78 | 5.0 | 5.0 | 0.00 | 0.02 | 0.00 | 89 | 1023.7 |
| 20260902114805 | 48 | 78 | 5.0 | 5.0 | 0.00 | 0.02 | 0.00 | 89 | 1015.8 |
| 20260902114304 | 48 | 78 | 5.0 | 5.0 | 0.00 | 0.02 | 0.00 | 89 | 1024.4 |
| 20260902113804 | 48 | 78 | 5.0 | 5.0 | 0.00 | 0.02 | 0.00 | 89 | 1015.8 |
| 20260902113304 | 48 | 78 | 5.0 | 5.0 | 0.00 | 0.02 | 0.00 | 89 | 1019.0 |
| 20260902111804 | 48 | 78 | 5.0 | 5.0 | 0.00 | 0.02 | 0.00 | 89 | 1015.7 |
| 20260902111304 | 48 | 78 | 5.0 | 5.0 | 0.00 | 0.02 | 0.00 | 89 | 1024.9 |
| 20260902110804 | 48 | 78 | 5.0 | 5.0 | 0.00 | 0.02 | 0.00 | 89 | 1015.7 |
| 20260902110304 | 48 | 78 | 5.0 | 5.0 | 0.00 | 0.02 | 0.00 | 89 | 1015.8 |
| 20260902105803 | 48 | 78 | 5.0 | 5.0 | 0.00 | 0.02 | 0.00 | 89 | 1015.6 |
| 20260902105306 | 44 | 78 | 5.0 | 5.0 | 0.00 | 0.02 | 0.00 | 89 | 1015.7 |
| 20260902104803 | 44 | 78 | 5.0 | 5.0 | 0.00 | 0.02 | 0.00 | 84 | 1016.0 |
| 20260902104304 | 44 | 78 | 5.0 | 5.0 | 0.00 | 0.02 | 0.00 | 84 | 1016.0 |
| 20260902103804 | 44 | 78 | 5.0 | 5.0 | 0.00 | 0.02 | 0.00 | 85 | 1015.8 |
| 20260902103304 | 44 | 78 | 5.0 | 5.0 | 0.00 | 0.02 | 0.00 | 84 | 1015.8 |
| 20260902102803 | 44 | 78 | 5.0 | 5.0 | 0.00 | 0.02 | 0.00 | 85 | 1015.9 |
| 20260902102307 | 44 | 78 | 5.0 | 5.0 | 0.00 | 0.02 | 0.00 | 85 | 1024.4 |
| 20260902101804 | 44 | 78 | 5.0 | 5.0 | 0.00 | 0.02 | 0.00 | 84 | 1015.9 |
| 20260902101304 | 44 | 78 | 5.0 | 5.0 | 0.00 | 0.02 | 0.00 | 85 | 1025.7 |
| 20260902100803 | 44 | 78 | 5.0 | 5.0 | 0.00 | 0.02 | 0.00 | 84 | 1016.0 |
| 20260902095804 | 44 | 78 | 5.0 | 5.0 | 0.00 | 0.02 | 0.00 | 84 | 1016.0 |
| 20260902094304 | 46 | 45 | 5.0 | 6.0 | 0.00 | 0.02 | 0.00 | 85 | 1016.0 |
| 20260902093805 | 46 | 45 | 5.0 | 6.0 | 0.00 | 0.02 | 0.00 | 85 | 1015.9 |
| 20260902092805 | 46 | 45 | 5.0 | 6.0 | 0.00 | 0.02 | 0.00 | 85 | 1020.3 |
| 20260902092305 | 46 | 45 | 5.0 | 6.0 | 0.00 | 0.02 | 0.00 | 85 | 1015.8 |
| 20260902091804 | 46 | 45 | 5.0 | 6.0 | 0.00 | 0.02 | 0.00 | 85 | 1022.0 |
| 20260902091304 | 46 | 45 | 5.0 | 6.0 | 0.00 | 0.02 | 0.00 | 85 | 1015.7 |
| 20260902090804 | 46 | 56 | 5.0 | 6.0 | 0.00 | 0.02 | 0.00 | 84 | 1016.0 |
| 20260902090303 | 46 | 71 | 5.0 | 6.0 | 0.00 | 0.02 | 0.00 | 82 | 1015.9 |
| 20260902085306 | 46 | 71 | 5.0 | 6.0 | 0.00 | 0.02 | 0.00 | 82 | 1023.9 |
| 20260902084805 | 46 | 71 | 5.0 | 6.0 | 0.00 | 0.02 | 0.00 | 82 | 1015.8 |
| 20260902083804 | 46 | 71 | 5.0 | 6.0 | 0.00 | 0.02 | 0.00 | 82 | 1015.8 |
| 20260902083304 | 46 | 71 | 5.0 | 6.0 | 0.00 | 0.02 | 0.00 | 82 | 1015.9 |
| 20260902082804 | 46 | 71 | 5.0 | 6.0 | 0.00 | 0.02 | 0.00 | 82 | 1015.9 |
| 20260902082309 | 46 | 71 | 5.0 | 8.0 | 0.00 | 0.02 | 0.00 | 82 | 1015.9 |
| 20260902081804 | 47 | 68 | 8.0 | 8.0 | 0.00 | 0.02 | 0.00 | 81 | 1016.0 |
| 20260902081306 | 47 | 68 | 8.0 | 8.0 | 0.00 | 0.02 | 0.00 | 81 | 1025.2 |
| 20260902080805 | 47 | 68 | 8.0 | 8.0 | 0.00 | 0.02 | 0.00 | 81 | 1015.9 |
| 20260902080305 | 47 | 67 | 6.0 | 8.0 | 0.00 | 0.02 | 0.00 | 81 | 1015.9 |
| 20260902075806 | 48 | 69 | 6.0 | 6.0 | 0.00 | 0.02 | 0.00 | 80 | 1015.9 |
| 20260902074805 | 48 | 69 | 2.0 | 5.0 | 0.00 | 0.02 | 0.00 | 79 | 1015.9 |
| 20260902074305 | 48 | 69 | 2.0 | 8.0 | 0.00 | 0.02 | 0.00 | 79 | 1016.0 |
| 20260902073806 | 48 | 89 | 7.0 | 8.0 | 0.00 | 0.02 | 0.00 | 80 | 1016.0 |
| 20260902073306 | 48 | 62 | 3.0 | 8.0 | 0.00 | 0.02 | 0.00 | 79 | 1015.9 |
| 20260902072805 | 48 | 67 | 5.0 | 8.0 | 0.00 | 0.02 | 0.00 | 81 | 1020.1 |
| 20260902072309 | 47 | 71 | 5.0 | 8.0 | 0.00 | 0.02 | 0.00 | 80 | 1016.0 |
| 20260902071805 | 48 | 68 | 3.0 | 12.0 | 0.00 | 0.02 | 0.00 | 80 | 1015.9 |
| 20260902070805 | 47 | 64 | 11.0 | 12.0 | 0.00 | 0.02 | 0.00 | 80 | 1015.8 |
| 20260902070306 | 47 | 77 | 6.0 | 10.0 | 0.00 | 0.02 | 0.00 | 80 | 1015.8 |
| 20260902064305 | 48 | 54 | 7.0 | 8.0 | 0.00 | 0.02 | 0.00 | 78 | 1022.9 |
| 20260902063805 | 48 | 88 | 5.0 | 8.0 | 0.00 | 0.02 | 0.00 | 79 | 1015.6 |
| 20260902062805 | 49 | 87 | 5.0 | 5.0 | 0.00 | 0.02 | 0.00 | 76 | 1015.6 |
| 20260902062306 | 49 | 87 | 5.0 | 5.0 | 0.00 | 0.02 | 0.00 | 76 | 1024.9 |
| 20260902061805 | 49 | 87 | 5.0 | 5.0 | 0.00 | 0.02 | 0.00 | 76 | 1015.6 |
| 20260902060805 | 49 | 87 | 5.0 | 7.0 | 0.00 | 0.02 | 0.00 | 76 | 1015.5 |
| 20260902060305 | 50 | 81 | 5.0 | 7.0 | 0.00 | 0.02 | 0.00 | 76 | 1020.7 |
| 20260902055805 | 51 | 78 | 5.0 | 8.0 | 0.00 | 0.05 | 0.00 | 75 | 1015.6 |
| 20260902055307 | 50 | 61 | 5.0 | 8.0 | 0.00 | 0.05 | 0.00 | 75 | 1015.9 |
| 20260902054805 | 50 | 61 | 5.0 | 12.0 | 0.00 | 0.05 | 0.00 | 75 | 1015.7 |
| 20260902054305 | 50 | 78 | 7.0 | 7.0 | 0.00 | 0.05 | 0.00 | 75 | 1015.7 |
| 20260902053805 | 50 | 78 | 7.0 | 7.0 | 0.00 | 0.05 | 0.00 | 75 | 1015.7 |
| 20260902053306 | 50 | 78 | 7.0 | 8.0 | 0.00 | 0.05 | 0.00 | 75 | 1015.5 |
| 20260902052806 | 51 | 71 | 6.0 | 8.0 | 0.00 | 0.05 | 0.00 | 74 | 1015.5 |
| 20260902052306 | 51 | 81 | 7.0 | 10.0 | 0.00 | 0.05 | 0.00 | 74 | 1015.6 |
| 20260902051805 | 51 | 81 | 6.0 | 10.0 | 0.00 | 0.05 | 0.00 | 73 | 1025.1 |
| 20260902051305 | 51 | 72 | 6.0 | 9.0 | 0.00 | 0.05 | 0.00 | 73 | 1015.4 |
| 20260902050805 | 52 | 84 | 5.0 | 12.0 | 0.00 | 0.05 | 0.00 | 73 | 1023.3 |
| 20260902050306 | 51 | 85 | 9.0 | 14.0 | 0.00 | 0.06 | 0.00 | 73 | 1015.6 |
| 20260902045805 | 53 | 47 | 5.0 | 10.0 | 0.00 | 0.07 | 0.07 | 71 | 1025.1 |
| 20260902044805 | 52 | 77 | 7.0 | 12.0 | 0.00 | 0.09 | 0.07 | 72 | 1015.6 |
| 20260902044305 | 53 | 78 | 3.0 | 9.0 | 0.00 | 0.09 | 0.07 | 71 | 1015.6 |
| 20260902043805 | 52 | 68 | 5.0 | 7.0 | 0.00 | 0.09 | 0.07 | 72 | 1024.6 |
| 20260902043306 | 53 | 66 | 5.0 | 8.0 | 0.00 | 0.09 | 0.07 | 71 | 1015.6 |
| 20260902042805 | 52 | 54 | 5.0 | 8.0 | 0.00 | 0.09 | 0.07 | 72 | 1015.6 |
| 20260902041806 | 52 | 43 | 5.0 | 9.0 | 0.00 | 0.09 | 0.07 | 72 | 1015.6 |
| 20260902041305 | 53 | 74 | 7.0 | 13.0 | 0.00 | 0.09 | 0.07 | 71 | 1015.6 |
| 20260902040805 | 54 | 70 | 8.0 | 13.0 | 0.00 | 0.09 | 0.07 | 70 | 1015.5 |
| 20260902040306 | 53 | 78 | 6.0 | 10.0 | 0.00 | 0.09 | 0.07 | 71 | 1019.4 |
| 20260902035805 | 54 | 67 | 5.0 | 10.0 | 0.00 | 0.10 | 0.07 | 71 | 1015.5 |
| 20260902035305 | 56 | 93 | 3.0 | 10.0 | 0.00 | 0.10 | 0.07 | 60 | 1021.0 |
| 20260902034806 | 54 | 65 | 7.0 | 9.0 | 0.00 | 0.10 | 0.07 | 71 | 1015.4 |
| 20260902034305 | 56 | 66 | 8.0 | 8.0 | 0.00 | 0.10 | 0.07 | 70 | 1015.3 |
| 20260902032804 | 56 | 69 | 7.0 | 12.0 | 0.00 | 0.10 | 0.07 | 67 | 1015.4 |
| 20260902032306 | 56 | 57 | 6.0 | 13.0 | 0.00 | 0.10 | 0.07 | 66 | 1015.3 |
| 20260902031805 | 57 | 58 | 3.0 | 8.0 | 0.00 | 0.10 | 0.07 | 67 | 1015.4 |
| 20260902031305 | 57 | 50 | 0.0 | 2.0 | 0.00 | 0.10 | 0.07 | 66 | 1015.2 |
| 20260902030806 | 58 | 124 | 0.0 | 2.0 | 0.00 | 0.10 | 0.07 | 66 | 1015.2 |
| 20260902030306 | 57 | 74 | 2.0 | 6.0 | 0.00 | 0.10 | 0.07 | 64 | 1015.0 |
| 20260902025805 | 59 | 61 | 3.0 | 6.0 | 0.00 | 0.10 | 0.07 | 64 | 1015.1 |
| 20260902025306 | 60 | 49 | 3.0 | 5.0 | 0.00 | 0.10 | 0.07 | 64 | 1014.8 |
| 20260902024804 | 58 | 71 | 3.0 | 5.0 | 0.00 | 0.10 | 0.07 | 64 | 1014.8 |
| 20260902024305 | 60 | 70 | 3.0 | 6.0 | 0.00 | 0.10 | 0.07 | 63 | 1014.7 |
| 20260902023805 | 59 | 52 | 5.0 | 6.0 | 0.00 | 0.10 | 0.07 | 60 | 1014.7 |
| 20260902022805 | 60 | 150 | 1.0 | 2.0 | 0.00 | 0.10 | 0.07 | 59 | 1014.6 |
| 20260902022306 | 61 | 123 | 1.0 | 5.0 | 0.00 | 0.10 | 0.07 | 57 | 1014.6 |
| 20260902021805 | 61 | 7 | 1.0 | 5.0 | 0.00 | 0.10 | 0.07 | 55 | 1014.5 |
| 20260902021305 | 61 | 226 | 1.0 | 3.0 | 0.00 | 0.10 | 0.07 | 56 | 1014.4 |
| 20260902020805 | 62 | 129 | 2.0 | 5.0 | 0.00 | 0.10 | 0.07 | 56 | 1014.5 |
| 20260902020305 | 61 | 76 | 5.0 | 6.0 | 0.00 | 0.10 | 0.07 | 57 | 1014.5 |
| 20260902015306 | 62 | 101 | 2.0 | 7.0 | 0.00 | 0.10 | 0.07 | 55 | 1014.4 |
| 20260902014805 | 63 | 73 | 5.0 | 7.0 | 0.00 | 0.10 | 0.07 | 57 | 1014.4 |
| 20260902014305 | 63 | 67 | 3.0 | 5.0 | 0.00 | 0.10 | 0.07 | 54 | 1014.4 |
| 20260902013805 | 64 | 85 | 1.0 | 3.0 | 0.00 | 0.10 | 0.07 | 49 | 1015.8 |
| 20260902012805 | 65 | 227 | 1.0 | 5.0 | 0.00 | 0.11 | 0.07 | 46 | 1017.2 |
| 20260902012309 | 66 | 75 | 2.0 | 5.0 | 0.00 | 0.12 | 0.07 | 51 | 1014.2 |
| 20260902011806 | 65 | 57 | 3.0 | 6.0 | 0.00 | 0.14 | 0.07 | 44 | 1018.4 |
| 20260902011304 | 66 | 113 | 3.0 | 3.0 | 0.00 | 0.15 | 0.07 | 47 | 1014.2 |
| 20260902010805 | 66 | 230 | 1.0 | 3.0 | 0.00 | 0.16 | 0.07 | 48 | 1014.1 |
| 20260902010304 | 67 | 37 | 1.0 | 5.0 | 0.00 | 0.16 | 0.07 | 45 | 1022.6 |
| 20260902005805 | 66 | 212 | 2.0 | 8.0 | 0.00 | 0.16 | 0.07 | 45 | 1014.1 |
| 20260902005306 | 67 | 59 | 5.0 | 8.0 | 0.00 | 0.16 | 0.07 | 44 | 1014.1 |
| 20260902004305 | 67 | 119 | 1.0 | 6.0 | 0.00 | 0.16 | 0.07 | 47 | 1013.9 |
| 20260902003804 | 68 | 180 | 1.0 | 6.0 | 0.00 | 0.16 | 0.07 | 45 | 1013.9 |
| 20260902003305 | 69 | 126 | 3.0 | 5.0 | 0.00 | 0.16 | 0.07 | 44 | 1014.0 |
| 20260902002805 | 71 | 253 | 1.0 | 7.0 | 0.00 | 0.16 | 0.07 | 40 | 1014.0 |
| 20260902002306 | 71 | 163 | 3.0 | 5.0 | 0.00 | 0.16 | 0.07 | 40 | 1013.9 |
| 20260902001805 | 71 | 129 | 1.0 | 7.0 | 0.00 | 0.16 | 0.07 | 39 | 1014.1 |
| 20260902001305 | 71 | 230 | 3.0 | 8.0 | 0.00 | 0.16 | 0.07 | 37 | 1014.0 |
| 20260902000806 | 71 | 224 | 3.0 | 6.0 | 0.00 | 0.16 | 0.07 | 39 | 1014.0 |
| 20260901235804 | 75 | 234 | 4.0 | 9.0 | 0.00 | 0.17 | 0.07 | 39 | 1023.2 |
| 20260901234805 | 75 | 170 | 4.0 | 7.0 | 0.00 | 0.17 | 0.07 | 40 | 1013.9 |
| 20260901233805 | 75 | 228 | 2.0 | 9.0 | 0.00 | 0.17 | 0.07 | 38 | 1022.9 |
| 20260901233306 | 75 | 166 | 2.0 | 10.0 | 0.00 | 0.17 | 0.07 | 37 | 1014.0 |
| 20260901232805 | 75 | 240 | 3.0 | 9.0 | 0.00 | 0.17 | 0.07 | 36 | 1014.1 |
| 20260901232306 | 75 | 286 | 3.0 | 10.0 | 0.00 | 0.17 | 0.07 | 39 | 1014.0 |
| 20260901231804 | 75 | 158 | 5.0 | 10.0 | 0.00 | 0.17 | 0.07 | 39 | 1019.1 |
| 20260901231305 | 75 | 171 | 5.0 | 9.0 | 0.00 | 0.17 | 0.07 | 39 | 1013.9 |
| 20260901230805 | 75 | 174 | 3.0 | 8.0 | 0.00 | 0.17 | 0.07 | 38 | 1014.1 |
| 20260901230304 | 75 | 178 | 5.0 | 12.0 | 0.00 | 0.18 | 0.07 | 42 | 1014.2 |
| 20260901225805 | 73 | 199 | 4.0 | 13.0 | 0.00 | 0.20 | 0.07 | 40 | 1018.7 |
| 20260901225306 | 73 | 164 | 3.0 | 13.0 | 0.00 | 0.20 | 0.07 | 40 | 1014.3 |
| 20260901224805 | 73 | 161 | 5.0 | 15.0 | 0.00 | 0.20 | 0.07 | 42 | 1014.4 |
| 20260901223805 | 73 | 161 | 0.0 | 7.0 | 0.00 | 0.20 | 0.07 | 41 | 1014.5 |
| 20260901222805 | 73 | 180 | 2.0 | 13.0 | 0.00 | 0.20 | 0.07 | 42 | 1014.5 |
| 20260901222306 | 73 | 160 | 7.0 | 18.0 | 0.00 | 0.20 | 0.07 | 41 | 1014.6 |
| 20260901221804 | 73 | 146 | 7.0 | 17.0 | 0.00 | 0.20 | 0.07 | 43 | 1014.6 |
| 20260901221305 | 73 | 152 | 10.0 | 17.0 | 0.00 | 0.20 | 0.07 | 41 | 1014.6 |
| 20260901220805 | 73 | 156 | 10.0 | 20.0 | 0.00 | 0.20 | 0.07 | 42 | 1014.6 |
| 20260901220304 | 73 | 156 | 6.0 | 15.0 | 0.00 | 0.20 | 0.07 | 41 | 1014.7 |
| 20260901215805 | 70 | 207 | 4.0 | 10.0 | 0.00 | 0.21 | 0.07 | 41 | 1014.5 |
| 20260901215306 | 72 | 166 | 9.0 | 10.0 | 0.00 | 0.21 | 0.07 | 41 | 1017.9 |
| 20260901214804 | 72 | 154 | 5.0 | 14.0 | 0.00 | 0.21 | 0.07 | 41 | 1014.9 |
| 20260901214304 | 72 | 179 | 4.0 | 8.0 | 0.00 | 0.21 | 0.07 | 41 | 1019.9 |
| 20260901213804 | 72 | 151 | 5.0 | 12.0 | 0.00 | 0.21 | 0.07 | 44 | 1014.9 |
| 20260901212805 | 72 | 239 | 2.0 | 8.0 | 0.00 | 0.21 | 0.07 | 43 | 1015.1 |
| 20260901212306 | 72 | 178 | 3.0 | 5.0 | 0.00 | 0.21 | 0.07 | 46 | 1019.2 |
| 20260901211805 | 72 | 261 | 1.0 | 6.0 | 0.00 | 0.21 | 0.07 | 47 | 1015.4 |
| 20260901211305 | 72 | 135 | 5.0 | 7.0 | 0.00 | 0.21 | 0.07 | 45 | 1021.0 |
| 20260901210805 | 72 | 195 | 3.0 | 8.0 | 0.00 | 0.21 | 0.07 | 49 | 1015.5 |
| 20260901210304 | 72 | 186 | 6.0 | 9.0 | 0.00 | 0.21 | 0.07 | 50 | 1015.7 |
| 20260901205805 | 69 | 27 | 5.0 | 9.0 | 0.00 | 0.21 | 0.07 | 51 | 1015.7 |
| 20260901205306 | 69 | 352 | 6.0 | 8.0 | 0.00 | 0.21 | 0.07 | 55 | 1015.8 |
| 20260901204804 | 69 | 44 | 5.0 | 8.0 | 0.00 | 0.21 | 0.07 | 61 | 1016.0 |
| 20260901204305 | 69 | 44 | 5.0 | 8.0 | 0.00 | 0.21 | 0.07 | 61 | 1016.1 |
| 20260901203804 | 69 | 44 | 5.0 | 8.0 | 0.00 | 0.21 | 0.07 | 61 | 1016.1 |